STARLINK-5726, 55608

Orbit data source: Space-Track

STARLINK-5726, 55608 is a payload satellite owned by SpaceX/Seattle (US) in LEO that was launched on Sun, 12 Feb 2023 UTC via an FALCON 9 launch vehicle from the Air Force Eastern Test Range (AFETR). Payload-class satellites include a variety of spacecraft equipped with specific instruments for various scientific and technological missions. These include communications satellites like Starlink; space stations such as the ISS; scientific satellites like the Hubble; Earth observation satellites from companies like Planet Labs, Umbra, and HawkEye 360; GPS; miniature CubeSats for education and research; and military/defense satellites.

Loading next visibility...
Identifier
55608, 2023-020AR
Orbit
LEO
Country
Flag of USUS
Related business
Manufacturer
SpaceX/Seattle
Mission
Operational Commercial Communications
Bus & Motor
STARLINK, Unknown motor
Mass
305 kg wet, ~290 kg dry
Launch date (UTC)
2023-02-12 (3 years ago)
Launch vehicle
FALCON 9
Launch site
Air Force Eastern Test Range (AFETR)
Object type
Payload
Rocket body
Debris
Shape & HBR
Box + 1 Pan, 10.1 m
Radar Cross Section
13.562 m², Large (>1 m²)

Expand to show TLE details & history
Last TLE update: 2 days ago

TLE from 2 days ago
0 STARLINK-5726
1 55608U 23020AR  26171.32214793 -.00001158  00000-0 -32580-4 0  9998
2 55608  43.0017 134.7811 0001150 246.4872 113.5859 15.27568780184730
Epoch: 2026-06-20T07:43Z
TLE epoch observation values (Epoch: 2026-06-20T07:43:53.581Z)
Latitude
Longitude
110.26941°
Altitude
483.174 km
Speed
7.625 km/s
True Right ascension
08h 59m 07s
True Declination
0° 00' 00"
Sunlit
Object was in daylight at epoch
Visualization orbit readout
Latitude
Unknown
Longitude
Unknown
Altitude
Unknown
Speed
Unknown
Apparent Right ascension
Unknown
Apparent Declination
Unknown
Sunlit
N/A
Visualization observer readout
Local Sidereal Time
21:42:33
Azimuth
Unknown
Elevation
Unknown
Doppler factor
Unknown
Orbital elements
Apogee altitude
485.817 km
Perigee altitude
484.238 km
Semi-major axis
6,863.165 km
Eccentricity
0.00012
Inclination
43.0017°
RAAN
134.7811°
Arg. of periapsis
246.4872°
True anomaly
113.59798°
Mean anomaly
113.5859°
Eccentric anomaly
113.59194°
Mean motion
3.8173 °/min
Orbital period
94.31 mins
BSTAR
-0.00003258
Loading maneuver chart data...
Computing Atmospheric mass density...
Loading historical data...
Loading historical data...
Loading historical data...
Loading historical data...
Loading historical data...
Loading historical data...
Loading historical data...

Documentation

Showing up to 5 results
|